contact:dominique.lefevre@mio.osupytheas.fr, maurice.libes@osupytheas.fr, didier.mallarino@osupytheas.fr
Project:EMSO http://www.emso-fr.org/EMSO-France
Depth: 2436.0 m
Title:EMSO Ligure Ouest : Data MII capteur AQUADOPP
Date,Latitude,Longitude,X_East,Y_North,Z_Up,Amplitude_X,Amplitude_Y,Amplitude_Z,Batterie,SoundSpeed,Heading,Pitch,Roll,Pressure,TIS,Speed,Direction
, degrees North, degrees East, m.s-1, m.s-1,m.s-1, 1, 1, 1, Volt, m.s-1, degree, degree, degree, dbar, degree_C, m.s-1, degree
2022-02-25T00:04:03,42.805,6.029,-0.027,0.007,-0.018,102.0,103.0,101.0,13.3,1505.2,327.6,-0.7,1.8,2470.879,13.28,0.027,284.5
2022-02-25T00:07:03,42.805,6.029,-0.007,0.021,-0.017,102.0,101.0,100.0,13.4,1505.2,330.5,-0.8,1.8,2470.859,13.28,0.022,341.6
2022-02-25T00:10:03,42.805,6.029,-0.032,-0.001,-0.028,102.0,102.0,100.0,13.3,1505.2,325.8,-0.7,1.8,2470.845,13.28,0.032,268.2
2022-02-25T00:13:03,42.805,6.029,-0.033,0.013,-0.016,102.0,102.0,102.0,13.3,1505.2,328.2,-0.8,1.8,2470.854,13.28,0.035,291.5
2022-02-25T00:16:03,42.805,6.029,-0.013,0.024,0.013,102.0,103.0,101.0,13.3,1505.2,325.9,-0.8,1.8,2470.83,13.28,0.027,331.6
2022-02-25T00:19:03,42.805,6.029,-0.011,0.017,-0.006,103.0,102.0,101.0,13.3,1505.2,329.6,-0.8,1.8,2470.852,13.28,0.02,327.1
2022-02-25T00:22:03,42.805,6.029,-0.032,0.011,-0.018,102.0,102.0,101.0,13.4,1505.2,328.6,-0.7,1.8,2470.841,13.29,0.033,289.0
2022-02-25T00:25:03,42.805,6.029,-0.017,0.02,-0.016,102.0,102.0,100.0,13.4,1505.2,331.4,-0.7,1.8,2470.826,13.29,0.026,319.6
2022-02-25T00:28:03,42.805,6.029,-0.017,0.028,-0.012,101.0,103.0,100.0,13.4,1505.2,323.3,-0.8,1.8,2470.863,13.29,0.032,328.7
2022-02-25T00:31:03,42.805,6.029,-0.021,0.018,-0.026,103.0,102.0,100.0,13.3,1505.2,329.0,-0.8,1.8,2470.836,13.29,0.027,310.6
2022-02-25T00:34:03,42.805,6.029,-0.024,0.005,-0.002,102.0,101.0,99.0,13.4,1505.2,325.6,-0.8,1.8,2470.84,13.29,0.024,281.8
2022-02-25T00:37:03,42.805,6.029,-0.03,0.019,0.004,103.0,101.0,102.0,13.3,1505.2,324.5,-0.8,1.8,2470.809,13.29,0.035,302.3
2022-02-25T00:40:03,42.805,6.029,-0.038,-0.006,-0.018,103.0,103.0,101.0,13.4,1505.2,331.6,-0.8,1.8,2470.828,13.29,0.038,261.0
2022-02-25T00:43:03,42.805,6.029,-0.04,0.0,-0.004,102.0,103.0,100.0,13.4,1505.2,323.1,-0.8,1.8,2470.807,13.29,0.04,270.0
2022-02-25T00:46:03,42.805,6.029,-0.033,0.011,-0.022,102.0,103.0,101.0,13.4,1505.2,326.7,-0.8,1.8,2470.819,13.29,0.034,288.4
2022-02-25T00:49:03,42.805,6.029,-0.033,0.027,0.008,102.0,103.0,101.0,13.3,1505.2,325.6,-0.8,1.8,2470.843,13.29,0.042,309.3
2022-02-25T00:52:03,42.805,6.029,-0.027,0.001,-0.017,103.0,102.0,101.0,13.4,1505.2,326.5,-0.7,1.8,2470.851,13.29,0.027,272.1
2022-02-25T00:55:03,42.805,6.029,-0.03,0.0,-0.016,103.0,102.0,102.0,13.4,1505.2,324.9,-0.8,1.8,2470.859,13.29,0.03,270.0
2022-02-25T00:58:02,42.805,6.029,-0.034,0.03,-0.003,101.0,102.0,101.0,13.3,1505.2,325.9,-0.8,1.8,2470.891,13.29,0.045,311.4
2022-02-25T01:04:02,42.805,6.029,0.001,0.007,0.039,104.0,104.0,103.0,13.4,1505.2,327.9,-0.8,1.8,2470.885,13.28,0.007,8.1
2022-02-25T01:07:02,42.805,6.029,-0.028,0.008,-0.036,106.0,104.0,103.0,13.4,1505.2,324.4,-0.7,1.8,2470.866,13.28,0.029,285.9
2022-02-25T01:10:02,42.805,6.029,-0.021,0.008,-0.034,102.0,103.0,102.0,13.4,1505.2,326.9,-0.8,1.8,2470.868,13.28,0.022,290.9
2022-02-25T01:13:03,42.805,6.029,-0.022,0.004,-0.018,103.0,103.0,104.0,13.3,1505.2,331.9,-0.8,1.8,2470.871,13.28,0.022,280.3
2022-02-25T01:16:02,42.805,6.029,-0.054,0.037,-0.007,102.0,103.0,101.0,13.4,1505.2,331.9,-0.7,1.8,2470.887,13.29,0.065,304.4
2022-02-25T01:19:02,42.805,6.029,-0.016,0.021,0.016,102.0,101.0,102.0,13.4,1505.2,331.7,-0.7,1.8,2470.879,13.28,0.026,322.7
2022-02-25T01:22:02,42.805,6.029,-0.037,0.009,-0.017,103.0,102.0,102.0,13.4,1505.2,324.4,-0.7,1.8,2470.868,13.29,0.038,283.7
2022-02-25T01:25:02,42.805,6.029,-0.03,0.0,-0.002,102.0,102.0,101.0,13.4,1505.2,322.9,-0.8,1.8,2470.86,13.28,0.03,270.0
2022-02-25T01:28:02,42.805,6.029,-0.016,-0.003,-0.015,102.0,101.0,101.0,13.4,1505.2,327.8,-0.7,1.8,2470.839,13.29,0.016,259.4
2022-02-25T01:31:02,42.805,6.029,-0.023,0.017,-0.001,102.0,102.0,100.0,13.4,1505.2,329.4,-0.7,1.8,2470.856,13.29,0.028,306.5
2022-02-25T01:34:02,42.805,6.029,-0.035,0.033,-0.005,101.0,103.0,101.0,13.3,1505.2,325.6,-0.8,1.8,2470.84,13.29,0.048,313.3
2022-02-25T01:37:02,42.805,6.029,-0.006,0.012,-0.02,102.0,102.0,100.0,13.4,1505.2,328.2,-0.8,1.8,2470.816,13.29,0.013,333.4
2022-02-25T01:40:02,42.805,6.029,-0.025,0.009,-0.027,101.0,102.0,100.0,13.4,1505.2,328.3,-0.7,1.8,2470.841,13.29,0.026,289.8
2022-02-25T01:43:03,42.805,6.029,-0.006,-0.007,-0.005,102.0,103.0,100.0,13.4,1505.2,331.7,-0.7,1.8,2470.809,13.29,0.009,220.6
2022-02-25T01:46:02,42.805,6.029,-0.04,0.009,-0.035,101.0,101.0,100.0,13.4,1505.2,325.3,-0.7,1.8,2470.833,13.29,0.041,282.7
2022-02-25T01:49:02,42.805,6.029,-0.041,0.022,-0.026,101.0,103.0,101.0,13.4,1505.2,327.4,-0.8,1.8,2470.868,13.29,0.046,298.2
2022-02-25T01:52:02,42.805,6.029,-0.03,0.006,-0.038,100.0,103.0,102.0,13.4,1505.2,329.8,-0.8,1.8,2470.862,13.29,0.03,281.3
2022-02-25T01:55:02,42.805,6.029,-0.035,0.01,-0.024,102.0,102.0,101.0,13.4,1505.2,331.4,-0.8,1.8,2470.839,13.29,0.036,285.9
2022-02-25T01:58:02,42.805,6.029,-0.008,0.016,-0.007,102.0,100.0,101.0,13.4,1505.2,329.6,-0.7,1.8,2470.835,13.29,0.017,333.4
2022-02-25T02:04:02,42.805,6.029,-0.032,0.021,-0.038,104.0,102.0,101.0,13.4,1505.2,330.9,-0.7,1.8,2470.848,13.28,0.038,303.3
2022-02-25T02:07:02,42.805,6.029,-0.027,-0.003,-0.034,104.0,100.0,101.0,13.4,1505.2,330.9,-0.8,1.8,2470.854,13.28,0.027,263.7
2022-02-25T02:10:02,42.805,6.029,-0.037,-0.005,-0.011,101.0,103.0,100.0,13.4,1505.2,326.9,-0.7,1.8,2470.867,13.28,0.037,262.3
2022-02-25T02:13:02,42.805,6.029,-0.037,0.013,-0.005,103.0,102.0,102.0,13.4,1505.2,326.6,-0.8,1.8,2470.872,13.28,0.039,289.4
2022-02-25T02:16:02,42.805,6.029,-0.046,-0.004,-0.013,103.0,102.0,102.0,13.3,1505.2,324.3,-0.8,1.8,2470.847,13.28,0.046,265.0
2022-02-25T02:19:03,42.805,6.029,-0.029,0.008,0.012,104.0,102.0,101.0,13.4,1505.2,328.1,-0.8,1.8,2470.882,13.28,0.03,285.4
2022-02-25T02:22:02,42.805,6.029,-0.006,0.018,0.03,103.0,103.0,101.0,13.4,1505.2,325.4,-0.8,1.8,2470.862,13.29,0.018,341.6
2022-02-25T02:25:02,42.805,6.029,-0.023,0.021,0.002,102.0,101.0,102.0,13.3,1505.2,325.8,-0.7,1.9,2470.83,13.29,0.031,312.4
2022-02-25T02:28:03,42.805,6.029,-0.015,0.0,-0.022,102.0,103.0,102.0,13.4,1505.2,329.5,-0.7,1.8,2470.829,13.29,0.015,270.0
2022-02-25T02:31:03,42.805,6.029,-0.031,0.028,-0.013,102.0,103.0,102.0,13.4,1505.2,328.5,-0.8,1.8,2470.836,13.28,0.041,312.1
2022-02-25T02:34:03,42.805,6.029,-0.026,0.005,-0.018,105.0,102.0,100.0,13.4,1505.2,327.6,-0.8,1.8,2470.862,13.29,0.026,280.9
2022-02-25T02:37:02,42.805,6.029,-0.038,0.022,-0.018,103.0,104.0,101.0,13.4,1505.2,325.1,-0.8,1.8,2470.818,13.29,0.043,300.1
2022-02-25T02:40:02,42.805,6.029,-0.054,0.016,-0.007,103.0,103.0,102.0,13.3,1505.2,330.9,-0.8,1.8,2470.848,13.29,0.056,286.5
2022-02-25T02:43:03,42.805,6.029,-0.014,0.01,-0.012,103.0,102.0,102.0,13.4,1505.2,330.3,-0.7,1.8,2470.832,13.29,0.017,305.5
2022-02-25T02:46:03,42.805,6.029,-0.035,0.035,-0.008,102.0,102.0,101.0,13.3,1505.2,327.4,-0.7,1.8,2470.833,13.29,0.049,315.0
2022-02-25T02:49:03,42.805,6.029,-0.042,0.034,0.0,102.0,103.0,101.0,13.4,1505.2,325.5,-0.7,1.8,2470.844,13.29,0.054,309.0
2022-02-25T02:52:02,42.805,6.029,-0.04,0.02,-0.007,102.0,102.0,103.0,13.4,1505.2,330.0,-0.7,1.8,2470.846,13.29,0.044,296.6
2022-02-25T02:55:03,42.805,6.029,-0.032,0.022,-0.026,102.0,104.0,103.0,13.3,1505.2,325.2,-0.7,1.8,2470.867,13.29,0.038,304.5
2022-02-25T02:58:03,42.805,6.029,-0.044,0.016,0.01,103.0,103.0,101.0,13.3,1505.2,324.9,-0.7,1.8,2470.852,13.28,0.046,290.0
2022-02-25T03:04:02,42.805,6.029,-0.031,-0.009,-0.03,104.0,103.0,101.0,13.4,1505.2,324.9,-0.7,1.8,2470.85,13.28,0.032,253.8
2022-02-25T03:07:02,42.805,6.029,-0.025,0.03,0.005,104.0,103.0,101.0,13.4,1505.2,331.6,-0.7,1.8,2470.854,13.28,0.039,320.2
2022-02-25T03:10:03,42.805,6.029,-0.032,0.009,0.0,104.0,103.0,101.0,13.4,1505.2,323.1,-0.8,1.8,2470.885,13.28,0.033,285.7
2022-02-25T03:13:03,42.805,6.029,-0.013,0.003,-0.022,104.0,103.0,102.0,13.4,1505.2,323.2,-0.8,1.8,2470.866,13.28,0.013,283.0
2022-02-25T03:16:03,42.805,6.029,-0.04,0.019,-0.002,104.0,102.0,101.0,13.4,1505.2,324.0,-0.7,1.8,2470.885,13.28,0.044,295.4
2022-02-25T03:19:03,42.805,6.029,-0.015,0.037,-0.023,102.0,103.0,102.0,13.4,1505.2,328.2,-0.7,1.8,2470.867,13.28,0.039,337.9
2022-02-25T03:22:02,42.805,6.029,-0.031,0.021,0.006,103.0,101.0,102.0,13.4,1505.2,325.8,-0.8,1.8,2470.901,13.29,0.037,304.1
2022-02-25T03:25:03,42.805,6.029,-0.031,0.013,-0.001,102.0,101.0,102.0,13.4,1505.2,327.6,-0.8,1.8,2470.885,13.29,0.033,292.7
2022-02-25T03:28:03,42.805,6.029,-0.013,0.008,-0.013,103.0,102.0,102.0,13.3,1505.2,327.7,-0.8,1.8,2470.857,13.28,0.015,301.6
2022-02-25T03:31:03,42.805,6.029,-0.037,0.018,-0.015,103.0,103.0,101.0,13.4,1505.2,323.7,-0.7,1.8,2470.838,13.29,0.041,295.9
2022-02-25T03:34:03,42.805,6.029,-0.028,-0.005,-0.037,103.0,104.0,101.0,13.4,1505.2,325.9,-0.7,1.8,2470.851,13.29,0.028,259.9
2022-02-25T03:37:02,42.805,6.029,-0.027,-0.008,-0.03,103.0,103.0,102.0,13.4,1505.2,324.4,-0.8,1.8,2470.814,13.29,0.028,253.5
2022-02-25T03:40:03,42.805,6.029,-0.015,0.014,0.007,104.0,102.0,102.0,13.4,1505.2,330.3,-0.7,1.8,2470.858,13.29,0.02,313.0
2022-02-25T03:43:03,42.805,6.029,-0.041,0.022,-0.021,103.0,103.0,102.0,13.3,1505.2,328.9,-0.8,1.8,2470.874,13.29,0.046,298.2
2022-02-25T03:46:03,42.805,6.029,-0.032,0.016,0.01,103.0,104.0,101.0,13.3,1505.2,324.6,-0.8,1.8,2470.844,13.29,0.035,296.6
2022-02-25T03:49:03,42.805,6.029,-0.028,-0.012,-0.035,103.0,104.0,101.0,13.4,1505.2,327.0,-0.7,1.8,2470.844,13.29,0.03,246.8
2022-02-25T03:52:02,42.805,6.029,-0.02,0.012,-0.002,104.0,102.0,102.0,13.4,1505.2,329.7,-0.8,1.8,2470.843,13.29,0.023,301.0
2022-02-25T03:55:03,42.805,6.029,-0.04,0.023,0.007,104.0,103.0,102.0,13.4,1505.2,330.4,-0.8,1.8,2470.843,13.29,0.046,299.9
2022-02-25T03:58:03,42.805,6.029,-0.032,0.016,-0.011,105.0,103.0,101.0,13.4,1505.2,331.9,-0.7,1.8,2470.828,13.29,0.035,296.6
2022-02-25T04:04:02,42.805,6.029,-0.049,0.024,-0.01,104.0,103.0,102.0,13.4,1505.2,330.9,-0.8,1.8,2470.874,13.28,0.054,296.1
2022-02-25T04:07:02,42.805,6.029,-0.034,0.0,-0.012,104.0,102.0,102.0,13.4,1505.2,326.6,-0.7,1.8,2470.909,13.28,0.034,270.0
2022-02-25T04:10:03,42.805,6.029,-0.02,0.019,-0.014,103.0,103.0,101.0,13.4,1505.2,323.1,-0.7,1.8,2470.888,13.28,0.027,313.5
2022-02-25T04:13:03,42.805,6.029,-0.024,0.002,-0.015,104.0,105.0,102.0,13.4,1505.2,325.8,-0.8,1.8,2470.866,13.28,0.024,274.8
2022-02-25T04:16:03,42.805,6.029,-0.042,0.014,-0.017,104.0,104.0,101.0,13.4,1505.2,329.1,-0.7,1.8,2470.887,13.28,0.044,288.4
2022-02-25T04:19:03,42.805,6.029,-0.019,0.017,-0.033,103.0,103.0,102.0,13.4,1505.2,330.6,-0.8,1.8,2470.886,13.29,0.025,311.8
2022-02-25T04:22:02,42.805,6.029,-0.051,0.015,0.0,104.0,103.0,102.0,13.4,1505.2,328.7,-0.7,1.8,2470.868,13.28,0.053,286.4
2022-02-25T04:25:03,42.805,6.029,-0.031,0.001,-0.04,104.0,103.0,101.0,13.4,1505.2,325.3,-0.8,1.8,2470.846,13.29,0.031,271.8
2022-02-25T04:28:03,42.805,6.029,-0.044,0.013,-0.021,104.0,104.0,101.0,13.4,1505.2,331.4,-0.7,1.8,2470.857,13.28,0.045,286.5
2022-02-25T04:31:03,42.805,6.029,-0.038,0.006,-0.009,103.0,103.0,101.0,13.3,1505.2,325.1,-0.8,1.8,2470.872,13.29,0.038,279.0
2022-02-25T04:34:03,42.805,6.029,-0.046,0.013,-0.007,102.0,102.0,102.0,13.3,1505.2,327.4,-0.8,1.9,2470.857,13.28,0.047,285.8
2022-02-25T04:37:02,42.805,6.029,-0.027,0.018,-0.038,104.0,104.0,102.0,13.3,1505.2,330.0,-0.7,1.8,2470.874,13.29,0.032,303.7
2022-02-25T04:40:03,42.805,6.029,-0.045,0.007,-0.001,102.0,104.0,102.0,13.4,1505.2,329.1,-0.7,1.9,2470.882,13.29,0.045,278.8
2022-02-25T04:43:03,42.805,6.029,-0.039,0.009,-0.01,104.0,103.0,102.0,13.4,1505.2,327.1,-0.7,1.8,2470.861,13.29,0.04,283.0
2022-02-25T04:46:03,42.805,6.029,-0.038,0.024,-0.022,103.0,104.0,102.0,13.4,1505.2,329.9,-0.7,1.8,2470.83,13.29,0.044,302.3
2022-02-25T04:49:03,42.805,6.029,-0.014,0.015,0.003,103.0,103.0,101.0,13.4,1505.2,324.3,-0.8,1.8,2470.838,13.29,0.02,317.0
2022-02-25T04:52:02,42.805,6.029,-0.031,0.02,-0.021,103.0,104.0,102.0,13.4,1505.2,331.1,-0.7,1.8,2470.855,13.29,0.036,302.8
2022-02-25T04:55:03,42.805,6.029,-0.031,0.053,0.018,103.0,103.0,102.0,13.3,1505.2,330.6,-0.7,1.8,2470.858,13.29,0.061,329.7
2022-02-25T04:58:03,42.805,6.029,-0.021,-0.003,0.019,104.0,103.0,102.0,13.4,1505.2,326.3,-0.7,1.8,2470.838,13.29,0.021,261.9
2022-02-25T05:04:02,42.805,6.029,-0.015,0.013,-0.009,105.0,103.0,102.0,13.3,1505.2,324.9,-0.7,1.8,2470.885,13.28,0.019,310.9
2022-02-25T05:07:02,42.805,6.029,-0.046,0.017,-0.029,105.0,103.0,103.0,13.3,1505.2,328.6,-0.7,1.8,2470.87,13.28,0.049,290.3
2022-02-25T05:10:03,42.805,6.029,-0.02,0.006,-0.02,103.0,103.0,102.0,13.3,1505.2,328.8,-0.8,1.8,2470.895,13.28,0.02,286.7
2022-02-25T05:13:03,42.805,6.029,-0.043,0.001,-0.019,104.0,103.0,102.0,13.4,1505.2,328.3,-0.8,1.8,2470.876,13.28,0.043,271.3
2022-02-25T05:16:03,42.805,6.029,-0.033,-0.006,-0.01,103.0,104.0,102.0,13.4,1505.2,327.8,-0.8,1.8,2470.865,13.28,0.033,259.7
2022-02-25T05:19:03,42.805,6.029,-0.02,-0.003,-0.018,104.0,104.0,102.0,13.4,1505.2,323.3,-0.7,1.8,2470.851,13.29,0.02,261.5
2022-02-25T05:22:02,42.805,6.029,-0.039,-0.005,-0.011,104.0,103.0,102.0,13.4,1505.2,325.1,-0.7,1.8,2470.848,13.29,0.039,262.7
2022-02-25T05:25:03,42.805,6.029,-0.021,0.011,-0.024,104.0,103.0,103.0,13.3,1505.2,325.7,-0.8,1.8,2470.871,13.28,0.023,297.6
2022-02-25T05:28:03,42.805,6.029,-0.02,0.013,0.011,104.0,104.0,102.0,13.4,1505.2,326.5,-0.8,1.8,2470.857,13.29,0.023,303.0
2022-02-25T05:31:03,42.805,6.029,-0.044,0.024,-0.016,103.0,104.0,102.0,13.4,1505.2,329.9,-0.7,1.8,2470.876,13.29,0.05,298.6
2022-02-25T05:34:03,42.805,6.029,-0.035,-0.014,-0.028,104.0,103.0,102.0,13.4,1505.2,325.5,-0.8,1.8,2470.852,13.29,0.037,248.2
2022-02-25T05:37:02,42.805,6.029,-0.029,0.008,-0.021,105.0,103.0,102.0,13.4,1505.2,324.4,-0.8,1.8,2470.841,13.29,0.03,285.4
2022-02-25T05:40:03,42.805,6.029,-0.06,0.021,-0.002,105.0,103.0,102.0,13.3,1505.2,330.6,-0.7,1.8,2470.859,13.29,0.063,289.3
2022-02-25T05:43:03,42.805,6.029,-0.03,-0.001,-0.005,103.0,104.0,101.0,13.3,1505.2,330.3,-0.8,1.8,2470.826,13.29,0.03,268.1
2022-02-25T05:46:03,42.805,6.029,-0.05,0.021,-0.007,105.0,104.0,102.0,13.4,1505.2,325.3,-0.8,1.8,2470.851,13.29,0.054,292.8
2022-02-25T05:49:03,42.805,6.029,-0.029,0.011,-0.022,103.0,103.0,102.0,13.3,1505.2,326.3,-0.7,1.8,2470.889,13.29,0.031,290.8
2022-02-25T05:52:03,42.805,6.029,-0.032,0.01,-0.018,104.0,103.0,103.0,13.4,1505.2,331.4,-0.8,1.9,2470.812,13.29,0.033,287.4
2022-02-25T05:55:03,42.805,6.029,-0.024,0.023,-0.024,104.0,103.0,102.0,13.4,1505.2,328.6,-0.7,1.8,2470.794,13.29,0.033,313.8
2022-02-25T05:58:03,42.805,6.029,-0.034,0.022,0.009,104.0,103.0,102.0,13.3,1505.2,329.7,-0.8,1.8,2470.826,13.29,0.04,302.9
2022-02-25T06:04:02,42.805,6.029,-0.04,0.017,-0.007,102.0,103.0,103.0,13.3,1505.2,331.9,-0.8,1.8,2470.873,13.28,0.043,293.0
2022-02-25T06:07:02,42.805,6.029,-0.034,0.019,-0.023,104.0,104.0,103.0,13.3,1505.2,325.9,-0.8,1.8,2470.846,13.28,0.038,299.2
2022-02-25T06:10:03,42.805,6.029,-0.042,0.034,-0.014,103.0,105.0,103.0,13.4,1505.2,329.2,-0.8,1.8,2470.882,13.28,0.054,309.0
2022-02-25T06:13:03,42.805,6.029,-0.042,0.004,-0.028,105.0,104.0,102.0,13.3,1505.2,327.6,-0.8,1.8,2470.845,13.28,0.042,275.4
2022-02-25T06:16:03,42.805,6.029,-0.035,0.012,-0.047,104.0,104.0,102.0,13.4,1505.2,330.2,-0.8,1.8,2470.819,13.28,0.037,288.9
2022-02-25T06:19:03,42.805,6.029,-0.051,0.006,-0.001,106.0,104.0,101.0,13.4,1505.2,330.9,-0.7,1.8,2470.838,13.29,0.051,276.7
2022-02-25T06:22:02,42.805,6.029,-0.025,0.021,0.003,105.0,103.0,102.0,13.4,1505.2,331.7,-0.8,1.8,2470.828,13.29,0.032,310.0
2022-02-25T06:25:03,42.805,6.029,-0.042,0.011,-0.005,105.0,104.0,103.0,13.4,1505.2,329.6,-0.8,1.8,2470.839,13.28,0.043,284.7
2022-02-25T06:28:03,42.805,6.029,-0.02,0.013,-0.014,104.0,104.0,102.0,13.4,1505.2,327.3,-0.8,1.8,2470.857,13.29,0.023,303.0
2022-02-25T06:31:03,42.805,6.029,-0.04,0.035,-0.003,106.0,103.0,103.0,13.4,1505.2,331.7,-0.8,1.9,2470.832,13.29,0.053,311.2
2022-02-25T06:34:03,42.805,6.029,-0.04,0.012,-0.007,104.0,105.0,101.0,13.4,1505.2,325.2,-0.7,1.8,2470.794,13.29,0.041,286.7
2022-02-25T06:37:03,42.805,6.029,-0.035,0.006,-0.019,105.0,104.0,103.0,13.3,1505.2,326.0,-0.7,1.8,2470.79,13.29,0.035,279.7
2022-02-25T06:40:03,42.805,6.029,-0.058,0.022,-0.02,104.0,104.0,103.0,13.4,1505.2,326.1,-0.8,1.8,2470.825,13.29,0.062,290.8
2022-02-25T06:43:03,42.805,6.029,-0.048,0.016,-0.025,104.0,104.0,103.0,13.3,1505.2,324.2,-0.8,1.8,2470.803,13.29,0.05,288.4
2022-02-25T06:46:03,42.805,6.029,-0.036,0.028,0.023,104.0,103.0,102.0,13.3,1505.2,331.4,-0.7,1.8,2470.836,13.29,0.045,307.9
2022-02-25T06:49:03,42.805,6.029,-0.06,0.021,-0.05,104.0,103.0,103.0,13.4,1505.2,329.9,-0.8,1.8,2470.812,13.29,0.063,289.3
2022-02-25T06:52:03,42.805,6.029,-0.034,0.019,-0.039,105.0,104.0,102.0,13.4,1505.2,329.0,-0.7,1.8,2470.855,13.29,0.038,299.2
2022-02-25T06:55:03,42.805,6.029,-0.039,0.013,-0.007,104.0,104.0,102.0,13.4,1505.2,328.7,-0.8,1.8,2470.822,13.29,0.041,288.4
2022-02-25T06:58:03,42.805,6.029,-0.059,0.026,-0.009,104.0,103.0,102.0,13.4,1505.2,327.0,-0.7,1.8,2470.794,13.29,0.064,293.8
2022-02-25T07:04:02,42.805,6.029,-0.043,0.01,-0.012,104.0,103.0,103.0,13.4,1505.2,323.7,-0.8,1.8,2470.837,13.28,0.044,283.1
2022-02-25T07:07:03,42.805,6.029,-0.035,0.036,0.029,105.0,104.0,102.0,13.4,1505.2,329.9,-0.7,1.8,2470.852,13.28,0.05,315.8
2022-02-25T07:10:03,42.805,6.029,-0.007,0.029,-0.007,103.0,104.0,102.0,13.4,1505.2,327.1,-0.7,1.8,2470.789,13.28,0.029,346.4
2022-02-25T07:13:03,42.805,6.029,-0.036,0.006,0.001,105.0,104.0,102.0,13.4,1505.2,326.2,-0.8,1.8,2470.801,13.28,0.036,279.5
2022-02-25T07:16:03,42.805,6.029,-0.031,0.007,-0.008,103.0,104.0,102.0,13.4,1505.2,325.7,-0.8,1.8,2470.836,13.28,0.031,282.7
2022-02-25T07:19:03,42.805,6.029,-0.037,0.03,-0.019,104.0,106.0,102.0,13.4,1505.2,328.9,-0.8,1.8,2470.817,13.28,0.047,309.0
2022-02-25T07:22:03,42.805,6.029,-0.032,0.031,-0.019,103.0,104.0,102.0,13.4,1505.2,330.7,-0.8,1.8,2470.797,13.29,0.044,314.1
2022-02-25T07:25:03,42.805,6.029,-0.039,0.017,0.015,105.0,104.0,102.0,13.4,1505.2,331.0,-0.8,1.8,2470.813,13.28,0.042,293.5
2022-02-25T07:28:03,42.805,6.029,-0.044,0.021,-0.009,104.0,104.0,101.0,13.4,1505.2,328.6,-0.8,1.8,2470.811,13.29,0.048,295.5
2022-02-25T07:31:03,42.805,6.029,-0.043,0.001,-0.032,104.0,103.0,102.0,13.3,1505.2,326.0,-0.7,1.8,2470.831,13.29,0.043,271.3
2022-02-25T07:34:03,42.805,6.029,-0.049,0.009,-0.017,103.0,105.0,100.0,13.3,1505.2,330.0,-0.8,1.8,2470.823,13.28,0.049,280.4
2022-02-25T07:37:03,42.805,6.029,-0.05,0.023,0.0,105.0,104.0,101.0,13.3,1505.2,326.6,-0.8,1.8,2470.8,13.29,0.055,294.7
2022-02-25T07:40:03,42.805,6.029,-0.061,0.027,0.021,104.0,104.0,102.0,13.4,1505.2,328.2,-0.7,1.8,2470.797,13.29,0.066,293.9
2022-02-25T07:43:03,42.805,6.029,-0.037,0.006,-0.032,104.0,104.0,102.0,13.4,1505.2,330.6,-0.7,1.8,2470.784,13.29,0.037,279.2
2022-02-25T07:46:03,42.805,6.029,-0.05,0.016,-0.005,107.0,104.0,103.0,13.4,1505.2,328.1,-0.8,1.8,2470.805,13.29,0.052,287.7
2022-02-25T07:49:03,42.805,6.029,-0.044,0.028,-0.022,103.0,104.0,103.0,13.4,1505.2,326.8,-0.7,1.8,2470.786,13.29,0.052,302.5
2022-02-25T07:52:03,42.805,6.029,-0.032,0.018,0.002,103.0,103.0,102.0,13.4,1505.2,328.2,-0.8,1.8,2470.799,13.29,0.036,299.4
2022-02-25T07:55:03,42.805,6.029,-0.02,0.03,-0.002,104.0,103.0,103.0,13.4,1505.2,328.7,-0.7,1.8,2470.807,13.29,0.036,326.3
2022-02-25T07:58:03,42.805,6.029,-0.053,0.018,-0.027,104.0,103.0,102.0,13.4,1505.2,323.2,-0.8,1.8,2470.788,13.29,0.055,288.8
2022-02-25T08:04:02,42.805,6.029,-0.047,0.027,0.006,103.0,103.0,102.0,13.4,1505.2,325.6,-0.8,1.8,2470.806,13.28,0.054,299.9
2022-02-25T08:07:03,42.805,6.029,-0.053,0.021,-0.008,103.0,103.0,100.0,13.4,1505.2,327.0,-0.8,1.8,2470.832,13.28,0.057,291.6
2022-02-25T08:10:03,42.805,6.029,-0.046,0.029,0.018,103.0,103.0,102.0,13.4,1505.2,326.1,-0.7,1.8,2470.795,13.28,0.054,302.2
2022-02-25T08:13:03,42.805,6.029,-0.049,0.013,-0.007,103.0,104.0,102.0,13.4,1505.2,328.5,-0.7,1.8,2470.79,13.28,0.05,284.9
2022-02-25T08:16:03,42.805,6.029,-0.04,0.019,-0.011,104.0,103.0,101.0,13.4,1505.2,329.4,-0.7,1.8,2470.777,13.28,0.044,295.4
2022-02-25T08:19:03,42.805,6.029,-0.044,0.009,-0.015,103.0,102.0,103.0,13.4,1505.2,325.4,-0.8,1.9,2470.802,13.28,0.044,281.6
2022-02-25T08:22:03,42.805,6.029,-0.031,0.021,-0.025,104.0,102.0,102.0,13.3,1505.2,326.7,-0.7,1.8,2470.8,13.29,0.037,304.1
2022-02-25T08:25:03,42.805,6.029,-0.034,0.002,-0.04,103.0,104.0,102.0,13.4,1505.2,328.7,-0.8,1.8,2470.795,13.29,0.034,273.4
2022-02-25T08:28:03,42.805,6.029,-0.063,0.02,0.0,103.0,102.0,102.0,13.4,1505.2,325.1,-0.8,1.9,2470.803,13.29,0.066,287.6
2022-02-25T08:31:03,42.805,6.029,-0.036,0.016,-0.013,103.0,102.0,102.0,13.4,1505.2,329.0,-0.8,1.8,2470.795,13.29,0.039,294.0
2022-02-25T08:34:03,42.805,6.029,-0.046,0.024,-0.01,103.0,104.0,102.0,13.4,1505.2,332.3,-0.7,1.9,2470.748,13.28,0.051,297.6
2022-02-25T08:37:03,42.805,6.029,-0.032,0.022,-0.019,104.0,104.0,102.0,13.4,1505.2,325.2,-0.8,1.8,2470.816,13.28,0.038,304.5
2022-02-25T08:40:03,42.805,6.029,-0.053,0.035,-0.013,103.0,103.0,103.0,13.4,1505.2,328.6,-0.8,1.8,2470.803,13.29,0.063,303.4
2022-02-25T08:43:03,42.805,6.029,-0.029,0.007,-0.005,104.0,105.0,102.0,13.4,1505.2,327.2,-0.7,1.8,2470.765,13.29,0.029,283.6
2022-02-25T08:46:03,42.805,6.029,-0.034,0.027,-0.018,104.0,103.0,101.0,13.3,1505.2,326.0,-0.7,1.8,2470.812,13.29,0.043,308.5
2022-02-25T08:49:03,42.805,6.029,-0.065,0.025,-0.021,104.0,103.0,102.0,13.4,1505.2,326.8,-0.8,1.8,2470.751,13.29,0.069,291.0
2022-02-25T08:52:03,42.805,6.029,-0.061,0.032,0.018,102.0,104.0,101.0,13.3,1505.2,328.5,-0.8,1.8,2470.818,13.29,0.068,297.7
2022-02-25T08:55:03,42.805,6.029,-0.024,0.041,0.035,103.0,104.0,102.0,13.4,1505.2,326.9,-0.8,1.8,2470.766,13.29,0.047,329.7
2022-02-25T08:58:03,42.805,6.029,-0.036,0.012,-0.027,104.0,104.0,102.0,13.3,1505.2,327.6,-0.7,1.8,2470.814,13.29,0.037,288.4
2022-02-25T09:04:02,42.805,6.029,-0.048,0.015,-0.043,104.0,103.0,103.0,13.4,1505.2,328.1,-0.7,1.9,2470.81,13.28,0.05,287.4
2022-02-25T09:07:03,42.805,6.029,-0.034,0.032,-0.014,105.0,104.0,102.0,13.4,1505.2,328.5,-0.8,1.8,2470.792,13.28,0.046,313.3
2022-02-25T09:10:03,42.805,6.029,-0.04,0.03,-0.019,105.0,103.0,102.0,13.4,1505.2,323.2,-0.8,1.8,2470.809,13.28,0.05,306.9
2022-02-25T09:13:03,42.805,6.029,-0.027,0.018,-0.034,104.0,103.0,102.0,13.3,1505.2,324.8,-0.8,1.8,2470.791,13.28,0.032,303.7
2022-02-25T09:16:03,42.805,6.029,-0.055,0.021,-0.009,105.0,104.0,103.0,13.3,1505.2,327.4,-0.8,1.8,2470.771,13.28,0.058,290.9
2022-02-25T09:19:03,42.805,6.029,-0.045,0.017,-0.014,104.0,105.0,101.0,13.4,1505.2,324.3,-0.8,1.8,2470.819,13.29,0.048,290.7
2022-02-25T09:22:03,42.805,6.029,-0.036,0.028,-0.006,103.0,103.0,101.0,13.3,1505.2,325.5,-0.8,1.8,2470.808,13.29,0.045,307.9
2022-02-25T09:25:03,42.805,6.029,-0.039,0.035,-0.004,106.0,104.0,103.0,13.4,1505.2,329.1,-0.7,1.8,2470.828,13.29,0.052,311.9
2022-02-25T09:28:03,42.805,6.029,-0.035,0.038,0.011,103.0,103.0,102.0,13.4,1505.2,330.9,-0.7,1.8,2470.805,13.29,0.051,317.4
2022-02-25T09:31:03,42.805,6.029,-0.051,0.017,-0.019,104.0,103.0,102.0,13.4,1505.2,330.0,-0.7,1.9,2470.763,13.29,0.053,288.4
2022-02-25T09:34:03,42.805,6.029,-0.044,0.014,-0.046,104.0,103.0,102.0,13.3,1505.2,326.8,-0.7,1.8,2470.823,13.29,0.046,287.6
2022-02-25T09:37:03,42.805,6.029,-0.033,0.008,-0.017,103.0,103.0,102.0,13.4,1505.2,328.7,-0.8,1.8,2470.799,13.29,0.033,283.6
2022-02-25T09:40:03,42.805,6.029,-0.056,0.032,-0.017,104.0,104.0,101.0,13.4,1505.2,327.9,-0.8,1.8,2470.807,13.29,0.064,299.7
2022-02-25T09:43:03,42.805,6.029,-0.039,0.004,-0.015,105.0,101.0,102.0,13.4,1505.2,325.7,-0.8,1.8,2470.777,13.29,0.039,275.9
2022-02-25T09:46:03,42.805,6.029,-0.057,0.019,-0.035,103.0,103.0,103.0,13.3,1505.2,326.4,-0.7,1.9,2470.783,13.29,0.06,288.4
2022-02-25T09:49:03,42.805,6.029,-0.052,0.028,-0.002,103.0,103.0,101.0,13.4,1505.2,330.4,-0.8,1.8,2470.785,13.29,0.059,298.3
2022-02-25T09:52:03,42.805,6.029,-0.04,0.021,0.024,104.0,103.0,101.0,13.4,1505.2,328.3,-0.8,1.8,2470.817,13.29,0.045,297.7
2022-02-25T09:55:03,42.805,6.029,-0.04,0.009,-0.017,105.0,102.0,103.0,13.3,1505.2,330.2,-0.8,1.8,2470.791,13.29,0.041,282.7